When you browse on this site, cookies collect data to enhance your experience and personalize the content and advertising you see.
Visit our Privacy Policy to learn more. By continuing to use the site, you agree to this use of cookies and data.

Hourly Weather Vystrelovo

Today, 14 July, Tuesday

Time Temperature Precipitation Wind Pressure Humidity
00:00 +10°C° 0 mm 2 mps 754 mmHg 87%
01:00 +10°C° 0 mm 2 mps 754 mmHg 89%
02:00 +9°C° 0 mm 2 mps 754 mmHg 93%
03:00 +9°C° 0 mm 2 mps 754 mmHg 92%
04:00 +9°C° 0 mm 2 mps 754 mmHg 91%
05:00 +9°C° 0 mm 2 mps 754 mmHg 90%
06:00 +13°C° 0 mm 2 mps 754 mmHg 81%
07:00 +15°C° 0 mm 2 mps 754 mmHg 73%
08:00 +17°C° 0 mm 2 mps 755 mmHg 63%
09:00 +18°C° 0 mm 2 mps 755 mmHg 58%
10:00 +19°C° 0 mm 2 mps 755 mmHg 53%
11:00 +20°C° 0 mm 2 mps 755 mmHg 48%
12:00 +20°C° 0.1 mm 2 mps 754 mmHg 51%
13:00 +20°C° 0.1 mm 2 mps 754 mmHg 54%
14:00 +20°C° 0.1 mm 2 mps 754 mmHg 57%
15:00 +20°C° 0.1 mm 2 mps 754 mmHg 58%
16:00 +20°C° 0.1 mm 2 mps 754 mmHg 58%
17:00 +20°C° 0.1 mm 2 mps 753 mmHg 59%
18:00 +18°C° 0 mm 2 mps 753 mmHg 63%
19:00 +17°C° 0 mm 2 mps 753 mmHg 67%
20:00 +16°C° 0 mm 2 mps 753 mmHg 71%
21:00 +14°C° 0 mm 2 mps 753 mmHg 71%
22:00 +13°C° 0 mm 2 mps 753 mmHg 70%
23:00 +12°C° 0 mm 2 mps 753 mmHg 69%

Tomorrow, 15 July, Wednesday

Time Temperature Precipitation Wind Pressure Humidity
00:00 +10°C° 0 mm 2 mps 753 mmHg 72%
01:00 +10°C° 0 mm 2 mps 753 mmHg 76%
02:00 +9°C° 0 mm 2 mps 753 mmHg 79%
03:00 +9°C° 0 mm 2 mps 753 mmHg 80%
04:00 +10°C° 0 mm 2 mps 753 mmHg 80%
05:00 +10°C° 0 mm 2 mps 753 mmHg 81%
06:00 +12°C° 0 mm 3 mps 753 mmHg 75%
07:00 +14°C° 0 mm 3 mps 753 mmHg 70%
08:00 +17°C° 0 mm 3 mps 753 mmHg 65%
09:00 +18°C° 0 mm 3 mps 753 mmHg 61%
10:00 +19°C° 0 mm 4 mps 753 mmHg 57%
11:00 +20°C° 0 mm 4 mps 752 mmHg 53%
12:00 +21°C° 0 mm 4 mps 752 mmHg 52%
13:00 +21°C° 0 mm 4 mps 752 mmHg 51%
14:00 +22°C° 0 mm 5 mps 752 mmHg 50%
15:00 +22°C° 0 mm 4 mps 752 mmHg 52%
16:00 +21°C° 0 mm 4 mps 752 mmHg 54%
17:00 +21°C° 0 mm 4 mps 751 mmHg 56%
18:00 +20°C° 0 mm 4 mps 752 mmHg 60%
19:00 +18°C° 0 mm 3 mps 752 mmHg 64%
20:00 +17°C° 0 mm 3 mps 752 mmHg 68%
21:00 +16°C° 0 mm 3 mps 752 mmHg 70%
22:00 +16°C° 0 mm 3 mps 752 mmHg 71%
23:00 +14°C° 0 mm 3 mps 752 mmHg 73%

Day after tomorrow, 16 July, Thursday

Time Temperature Precipitation Wind Pressure Humidity
00:00 +14°C° 0 mm 2 mps 752 mmHg 76%
01:00 +14°C° 0 mm 2 mps 752 mmHg 79%
02:00 +13°C° 0 mm 2 mps 752 mmHg 82%
03:00 +13°C° 0 mm 2 mps 752 mmHg 83%
04:00 +13°C° 0 mm 2 mps 751 mmHg 84%
05:00 +13°C° 0 mm 2 mps 751 mmHg 84%
06:00 +15°C° 0 mm 2 mps 751 mmHg 79%
07:00 +17°C° 0 mm 3 mps 751 mmHg 73%
08:00 +19°C° 0 mm 3 mps 751 mmHg 68%
09:00 +20°C° 0 mm 3 mps 751 mmHg 62%
10:00 +21°C° 0 mm 3 mps 751 mmHg 57%
11:00 +22°C° 0 mm 3 mps 751 mmHg 51%
12:00 +24°C° 0 mm 3 mps 751 mmHg 50%
13:00 +24°C° 0 mm 3 mps 751 mmHg 49%
14:00 +25°C° 0 mm 4 mps 751 mmHg 47%
15:00 +23°C° 0 mm 4 mps 751 mmHg 49%
16:00 +23°C° 0 mm 4 mps 751 mmHg 50%
17:00 +22°C° 0 mm 4 mps 751 mmHg 52%
18:00 +21°C° 0 mm 4 mps 751 mmHg 58%
19:00 +19°C° 0 mm 3 mps 751 mmHg 64%
20:00 +17°C° 0 mm 3 mps 751 mmHg 70%
21:00 +16°C° 0 mm 2 mps 751 mmHg 74%
22:00 +15°C° 0 mm 2 mps 751 mmHg 79%
23:00 +14°C° 0 mm 2 mps 751 mmHg 83%

17 July, Friday

Time Temperature Precipitation Wind Pressure Humidity
00:00 +13°C° 0 mm 2 mps 752 mmHg 87%
01:00 +13°C° 0 mm 2 mps 752 mmHg 90%
02:00 +13°C° 0 mm 2 mps 752 mmHg 93%
03:00 +13°C° 0 mm 2 mps 752 mmHg 92%
04:00 +13°C° 0 mm 2 mps 752 mmHg 91%
05:00 +13°C° 0 mm 2 mps 752 mmHg 90%
06:00 +15°C° 0 mm 2 mps 752 mmHg 82%
07:00 +17°C° 0 mm 2 mps 752 mmHg 75%
08:00 +19°C° 0 mm 2 mps 752 mmHg 67%
09:00 +21°C° 0 mm 2 mps 753 mmHg 61%
10:00 +23°C° 0 mm 2 mps 753 mmHg 54%
11:00 +24°C° 0 mm 2 mps 753 mmHg 48%
12:00 +24°C° 0 mm 3 mps 753 mmHg 46%
13:00 +25°C° 0 mm 3 mps 753 mmHg 44%
14:00 +25°C° 0 mm 3 mps 753 mmHg 42%
15:00 +25°C° 0 mm 3 mps 753 mmHg 43%
16:00 +25°C° 0 mm 3 mps 753 mmHg 43%
17:00 +25°C° 0 mm 3 mps 753 mmHg 44%
18:00 +23°C° 0 mm 2 mps 753 mmHg 52%
19:00 +20°C° 0 mm 2 mps 753 mmHg 60%
20:00 +18°C° 0 mm 2 mps 753 mmHg 67%
21:00 +17°C° 0 mm 2 mps 754 mmHg 68%
22:00 +15°C° 0 mm 2 mps 754 mmHg 69%
23:00 +14°C° 0 mm 2 mps 754 mmHg 70%

18 July, Saturday

Time Temperature Precipitation Wind Pressure Humidity
00:00 +14°C° 0 mm 2 mps 755 mmHg 73%
01:00 +13°C° 0 mm 1 mps 755 mmHg 75%
02:00 +12°C° 0 mm 1 mps 755 mmHg 77%
03:00 +12°C° 0 mm 1 mps 755 mmHg 77%
04:00 +12°C° 0 mm 1 mps 755 mmHg 76%
05:00 +13°C° 0 mm 1 mps 756 mmHg 76%
06:00 +15°C° 0 mm 1 mps 756 mmHg 69%
07:00 +18°C° 0 mm 1 mps 756 mmHg 61%
08:00 +21°C° 0 mm 1 mps 756 mmHg 54%
09:00 +22°C° 0 mm 1 mps 756 mmHg 51%
10:00 +24°C° 0 mm 1 mps 756 mmHg 48%
11:00 +25°C° 0 mm 1 mps 756 mmHg 45%
12:00 +26°C° 0 mm 1 mps 756 mmHg 45%
13:00 +26°C° 0 mm 1 mps 756 mmHg 44%
14:00 +27°C° 0 mm 1 mps 756 mmHg 44%
15:00 +26°C° 0 mm 1 mps 756 mmHg 46%
16:00 +26°C° 0 mm 1 mps 756 mmHg 49%
17:00 +26°C° 0 mm 1 mps 756 mmHg 52%
18:00 +24°C° 0 mm 1 mps 756 mmHg 58%
19:00 +22°C° 0 mm 1 mps 756 mmHg 65%
20:00 +21°C° 0 mm 1 mps 756 mmHg 71%
21:00 +20°C° 0 mm 1 mps 756 mmHg 74%
22:00 +18°C° 0 mm 1 mps 756 mmHg 76%
23:00 +16°C° 0 mm 1 mps 757 mmHg 79%

19 July, Sunday

Time Temperature Precipitation Wind Pressure Humidity
00:00 +16°C° 0 mm 1 mps 757 mmHg 81%
01:00 +14°C° 0 mm 0 mps 757 mmHg 83%
02:00 +13°C° 0 mm 0 mps 757 mmHg 85%
03:00 +14°C° 0 mm 0 mps 757 mmHg 84%
04:00 +14°C° 0 mm 0 mps 757 mmHg 83%
05:00 +14°C° 0 mm 0 mps 757 mmHg 83%
06:00 +18°C° 0 mm 1 mps 757 mmHg 76%
07:00 +20°C° 0 mm 1 mps 757 mmHg 69%
08:00 +22°C° 0 mm 1 mps 757 mmHg 62%
09:00 +24°C° 0 mm 1 mps 757 mmHg 57%
10:00 +25°C° 0 mm 1 mps 757 mmHg 52%
11:00 +27°C° 0 mm 1 mps 757 mmHg 47%
12:00 +27°C° 0 mm 1 mps 756 mmHg 44%
13:00 +28°C° 0 mm 2 mps 756 mmHg 42%
14:00 +28°C° 0 mm 2 mps 756 mmHg 39%
15:00 +28°C° 0 mm 2 mps 755 mmHg 41%
16:00 +28°C° 0 mm 2 mps 755 mmHg 42%
17:00 +27°C° 0 mm 2 mps 755 mmHg 43%
18:00 +25°C° 0 mm 2 mps 755 mmHg 51%
19:00 +23°C° 0 mm 2 mps 755 mmHg 58%
20:00 +20°C° 0 mm 2 mps 754 mmHg 66%
21:00 +19°C° 0 mm 2 mps 755 mmHg 67%
22:00 +17°C° 0 mm 2 mps 755 mmHg 67%
23:00 +16°C° 0 mm 2 mps 755 mmHg 68%
Show more